CZ-6A DEB, 56656

Orbit data source: Space-Track

CZ-6A DEB, 56656 is space debris in SSO originally from a launch on Fri, 11 Nov 2022 UTC launched from the Taiyaun Space Center, China (TSC). Debris objects in space refer to the collection of defunct objects orbiting the Earth. Examples of debris include non-operational satellites, rocket bodies, and fragments generated from explosions, collisions, or faulty payload assembly.

Loading next visibility...
Identifier
56656, 2022-151AGG
Orbit
SSO
Country
Flag of CNCN / PRC
Related business
Manufacturer
SAST
Mission
Spacecraft
Bus & Motor
Unknown
Mass
Unknown
Launch date (UTC)
2022-11-11 (4 years ago)
Launch vehicle
Unknown
Launch site
Taiyaun Space Center, China (TSC)
Object type
Payload
Rocket body
Debris
Shape & HBR
Unknown shape, 0.1 m
Radar Cross Section
Medium (>0.1 m² and <1 m²)

Expand to show TLE details & history
Last TLE update: 3 days ago

TLE from 3 days ago
0 CZ-6A DEB
1 56656U 22151AGG 26260.17705939  .00000863  00000-0  58441-3 0  9998
2 56656  98.8600 228.1589 0117197 175.7089 184.5108 13.99588605173281
Epoch: 2026-09-17T04:14Z
TLE epoch observation values (Epoch: 2026-09-17T04:14:57.931Z)
Latitude
-0.0001°
Longitude
168.29949°
Altitude
983.102 km
Speed
7.317 km/s
True Right ascension
15h 12m 38s
True Declination
0° 00' 00"
Sunlit
Object was in daylight at epoch
Visualization orbit readout
Latitude
Unknown
Longitude
Unknown
Altitude
Unknown
Speed
Unknown
Apparent Right ascension
Unknown
Apparent Declination
Unknown
Sunlit
N/A
Visualization observer readout
Local Sidereal Time
06:09:55
Azimuth
Unknown
Elevation
Unknown
Doppler factor
Unknown
Orbital elements
Apogee altitude
977.621 km
Perigee altitude
807.204 km
Semi-major axis
7,270.55 km
Eccentricity
0.01172
Inclination
98.86°
RAAN
228.1589°
Arg. of periapsis
175.7089°
True anomaly
184.4067°
Mean anomaly
184.5108°
Eccentric anomaly
184.4586°
Mean motion
3.501 °/min
Orbital period
102.83 mins
BSTAR
0.00058441
Loading maneuver chart data...
Computing Atmospheric mass density...
Loading historical data...
Loading historical data...
Loading historical data...
Loading historical data...
Loading historical data...
Loading historical data...
Loading historical data...

Documentation

Showing up to 5 results
|